Regional Weather Roundup
Issued by NWS Pendleton, OR

Home | Current Version | Previous Version | Text Only | Print | Product List | Glossary On
Versions: 1 2 3 4 5 6 7 8 9 10 11 12 13 14 15 16 17 18 19 20 21 22 23 24 25 26 27 28 29 30 31 32 33 34 35 36 37 38 39 40 41 42 43 44 45 46 47 48 49 50
000
ASUS46 KPDT 311104
RWRPDT
PENDLETON REGIONAL WEATHER ROUNDUP
NATIONAL WEATHER SERVICE PENDLETON OREGON
300 AM PST SAT JAN 31 2015

NOTE: FAIR INDICATES FEW OR NO CLOUDS BELOW 12,000 FEET WITH NO
SIGNIFICANT WEATHER AND/OR OBSTRUCTIONS TO VISIBILITY.

# INDICATES UNOFFICIAL STATION AND DATA

WAZ520-311210-
EAST SLOPES OF WASHINGTON CASCADES

CITY            SKY/WX      TMP DP  RH  WIND    PRES   REMARKS
#BULLFROG       N/A         29  28  96  W1      N/A
#BUMPING DAM    N/A         26  N/A N/A S1      N/A
#CLE ELUM HS    N/A         29  28  96  CALM    30.16R
#CLE ELUM LAKE  N/A         31  30  96  CALM    30.28S
#CLIFFDEL 2NW   N/A         25  24  96  CALM    N/A
#EASTON DOT     N/A         27  26  96  CALM    N/A
#ELK HTS DOT    N/A         29  29  100 NE1     N/A
#GLENWOOD       N/A         31  30  96  CALM    30.27F
#MANASTASH CYN  N/A         26  23  88  CALM    30.15R
#NELSON         N/A         29  28  96  CALM    30.31R
#NELSON 3SW     N/A         28  27  96  CALM    30.52R
#NILE           N/A         28  27  96  NW1     29.54R
#PEOH POINT     N/A         37  24  59  SW7     N/A
#RONALD 2NW     N/A         29  21  72  CALM    30.03R
#SNOWDEN        N/A         28  26  92  CALM    N/A
#SOUTH BLEWITT  N/A         26  24  92  CALM    N/A
#TEANAWAY 4NE   N/A         29  28  96  CALM    N/A
#TROUT LAKE 1NE N/A         30  29  96  CALM    30.28F
$$

WAZ521-311210-
SIMCOE HIGHLANDS

CITY            SKY/WX      TMP DP  RH  WIND    PRES   REMARKS
#BICKLETON HS   N/A         27  27  100 CALM    N/A
#SATUS PASS DOT N/A         24  23  96  CALM    N/A
#CENTERVILLE 4W N/A         32  31  96  N5      29.94S
#CENTERVILLE 1SWN/A         31  29  92  N6      30.26R
#GOLDENDALE     N/A         31  31  100 N3      N/A
#GOLDENDALE 1NE N/A         31  29  92  CALM    N/A
#GOLDENDALE 1S  N/A         29  29  100 CALM    30.18F
#GOLDENDALE 5WNWN/A         30  29  96  W3      30.26F
#GOODNOE HILLS  N/A         35  30  82  W6      N/A
#LYLE 6NE       N/A         32  31  96  CALM    30.26S
$$

WAZ026-311210-
KITTITAS VALLEY

CITY            SKY/WX      TMP DP  RH  WIND    PRES   REMARKS
ELLENSBURG AP   CLOUDY      33  29  85  SW5     30.23R
#ELLENSBURG CWU N/A         31  29  92  CALM    30.24R
#ELLENSBURG 3NE N/A         30  29  96  CALM    30.23R
#ELLENSBURG 1E  N/A         31  28  88  CALM    N/A
#KITTITAS 4N    N/A         31  29  92  CALM    28.53R
#KITTITAS 3S    N/A         32  30  92  CALM    30.28S
#MANASTASH RDG  N/A         29  29  100 N2      N/A
#ROCKY CYN DOT  N/A         31  30  96  NE1     N/A
#RYEGRASS DOT   N/A         30  29  96  CALM    N/A
#THORP 6N       N/A         28  27  96  E5      30.32S
$$

WAZ027-311210-
YAKIMA VALLEY

CITY            SKY/WX      TMP DP  RH  WIND    PRES   REMARKS
SUNNYSIDE AP    CLOUDY      34  32  92  E3      30.27S
YAKIMA AIRPORT  CLOUDY      36  31  82  CALM    30.27R
YAKIMA-VAGABOND CLOUDY      33  31  92  E8      30.24S
#DONALD 2NE     N/A         34  30  85  CALM    29.11R
#MABTON         N/A         36  34  92  CALM    30.27S
#MOXEE 2E       N/A         34  31  89  E3      30.23R
#NACHES 2SW     N/A         32  31  96  NE1     30.21S
#PARKER DOT     N/A         35  32  89  CALM    N/A
#SELAH 8E       N/A         30  30  100 CALM    N/A
#TERRACE HTS    N/A         33  32  96  CALM    30.27R
#TOPPENISH      N/A         35  32  89  CALM    30.22R
#I82 S UMTANUM RN/A         31  29  92  NE6     N/A
#UNION GAP DOT  N/A         35  33  92  CALM    N/A
#WAPATO 4NE     N/A         34  30  85  CALM    29.11R
#WEST VALLEY    N/A         34  32  92  CALM    30.29R
#W YAKIMA       N/A         33  31  92  CALM    30.31R
#WHITE SWAN 5E  N/A         35  33  92  CALM    30.31R
#WILEY CITY 3W  N/A         31  25  78  CALM    30.26R
#ZILLAH DOT     N/A         35  32  89  CALM    N/A
$$

WAZ028-311210-
LOWER COLUMBIA BASIN...WASHINGTON

CITY            SKY/WX      TMP DP  RH  WIND    PRES   REMARKS
PASCO           CLOUDY      37  34  89  CALM    30.31S
PROSSER AWOS    N/A         36  36  100 E5      30.31S
RICHLAND AWOS   CLOUDY      37  34  89  CALM    30.31S
#BASIN CITY 5SW N/A         36  35  96  SE1     30.29F
#BENTON CITY    N/A         35  32  89  CALM    30.22S
#CONNELL 5N     N/A         33  32  96  CALM    30.32S
#CONNELL 5NW    N/A         34  33  96  CALM    30.28S
#ELTOPIA 6NW    N/A         35  34  96  S1      29.24F
#KAHLOTUS       N/A         33  32  96  CALM    30.32F
#KENNEWICK 3S   N/A         36  34  92  CALM    30.32S
#PATERSON       N/A         36  34  92  E1      30.29S
#PROSSER DOT    N/A         37  33  85  E2      N/A
#PROSSER        N/A         35  31  85  CALM    30.30S
#SAGEMOOR 2W    N/A         36  34  92  CALM    30.17S
#TOUCHET 2S     N/A         37  34  89  CALM    30.31R
#WEST PASCO     N/A         38  34  85  CALM    30.28F
$$

WAZ029-311210-
FOOTHILLS OF THE BLUES...WASHINGTON

CITY            SKY/WX      TMP DP  RH  WIND    PRES   REMARKS
WALLA WALLA AP  CLOUDY      36  31  82  S5      30.27F
#DAYTON SCHOOL  N/A         32  27  82  CALM    30.26F
#LOWDEN 2SE     N/A         37  34  89  CALM    30.27S
#PLEASANT VIEW 1N/A         31  30  96  SE1     30.38S
#PRESCOTT       N/A         35  33  92  CALM    30.31S
#SUDBURY        N/A         40  N/A N/A CALM    N/A
#WHITMAN COLLEGEN/A         36  33  89  SW2     30.37F
#WAITSBURG 5S   N/A         32  31  96  CALM    30.43F
#WAITSBURG 8N   N/A         32  28  85  S2      30.12F
#WALLA WALLA 5E N/A         35  33  92  CALM    N/A
#WALLA WALLA U  N/A         37  34  89  CALM    30.32F
#WHITMAN MISSIONN/A         37  34  89  CALM    30.34S
$$

WAZ030-311210-
BLUE MOUNTAINS...WASHINGTON

CITY            SKY/WX      TMP DP  RH  WIND    PRES   REMARKS
#DIXIE 5SE      N/A         27  26  96  CALM    30.12S
#SKI BLUEWOOD   N/A         29  25  85  SW1     30.12S
$$

ORZ009-041-WAZ024-311210-
COLUMBIA RIVER GORGE

CITY            SKY/WX      TMP DP  RH  WIND    PRES   REMARKS
HOOD RIVER AP   CLOUDY      37  34  89  CALM    30.27F
THE DALLES AP   CLOUDY      39  33  79  NW5     30.27F
#ARLINGTON AIRPON/A         36  34  92  NW2     30.02S
#ARLINGTON HS   N/A         38  34  85  CALM    30.21F
#CELILO DOT     N/A         40  32  73  W1      N/A
#LYLE           N/A         39  35  85  CALM    30.30S
#MARYHILL       N/A         36  34  92  CALM    N/A
#MOSIER 1S      N/A         36  30  79  CALM    30.27S
#MURDOCK        N/A         40  37  89  NW3     30.30F
#RUFUS DOT      N/A         40  30  67  W7      N/A

$$

ORZ510-311210-
NORTH CENTRAL OREGON

CITY            SKY/WX      TMP DP  RH  WIND    PRES   REMARKS
#CHENOWITH 1W   N/A         31  31  100 W5      N/A
#COW CYN RST AREN/A         32  32  100 S3      N/A
#DUFUR 9E       N/A         31  31  100 CALM    30.33F
#GRASS VALLEY 1SN/A         31  30  96  SW9     30.29F
#KENT DOT       N/A         30  26  85  SE10    N/A
#MAUPIN SCHOOL  N/A         34  30  85  CALM    30.24F
#MORO SCHOOL    N/A         33  33  100 CALM    30.21F
#SHANIKO 5WSW   N/A         30  27  88  S13     N/A    WCI 20
#SHANIKO 4NW    N/A         29  29  100 S12     30.16F WCI 19
#TYGH VALLEY 2NEN/A         35  32  89  N2      30.27S
#WAPANITIA AIRPON/A         34  33  96  CALM    30.29F
#WASCO DOT      N/A         36  32  85  W1      N/A
#WASCO 5NE      N/A         33  32  96  CALM    30.28F
$$

ORZ511-311210-
CENTRAL OREGON

CITY            SKY/WX      TMP DP  RH  WIND    PRES   REMARKS
BEND AIRPORT    MOCLDY      27  27  100 CALM    30.22F FOG
MADRAS AIRPORT  N/A         28  28  100 CALM    30.24F
PRINEVILLE AP   CLOUDY      32  30  92  E6      30.22F
REDMOND AIRPORT CLOUDY      30  29  96  E6      30.21F FOG
#BEND 1SW       N/A         28  27  96  W3      N/A
#BEND-AWBREY    N/A         32  29  89  S3      30.30F
#BEND-KIM LN    N/A         30  28  92  SW8     30.17F
#CROOKED RVR RANN/A         33  31  92  CALM    30.30F
#CULVER         N/A         29  27  92  CALM    30.17F
#LAKE BILLY CHINN/A         34  28  78  CALM    30.29F
#POWELL BUTTE   N/A         30  27  88  W1      29.81F
#PRINEVILLE 3N  N/A         32  31  96  E3      30.25F
#WARM SPRINGS   N/A         39  35  85  CALM    30.21F

$$


ORZ509-311210-
EAST SLOPES OF OREGON CASCADES

CITY            SKY/WX      TMP DP  RH  WIND    PRES   REMARKS
#BLUE BOX PASS  N/A         40  -10 11  CALM    N/A
#CAMP SHERMAN   N/A         31  29  92  CALM    30.30F
#LA PINE DOT    N/A         26  24  92  E2      N/A
#LA PINE 4NW    N/A         27  24  88  CALM    30.37S
#LAVA BUTTE DOT N/A         23  22  96  SE1     N/A
#MT BACHELOR-MIDN/A         35   2  24  S9      N/A
#SISTERS AIRPOR N/A         29  29  100 CALM    30.17S
#SISTERS ODOT   N/A         29  N/A N/A CALM    N/A
#SISTERS 3N     N/A         29  26  88  CALM    30.19F
#SUNRIVER       N/A         28  27  96  S2      30.22S
#TUMALO 3W      N/A         26  25  96  CALM    30.18F
#WANOGA BUTTE D N/A         38   4  23  NE5     N/A

$$

ORZ044-311210-
LOWER COLUMBIA BASIN...OREGON

CITY            SKY/WX      TMP DP  RH  WIND    PRES   REMARKS
HERMISTON       CLOUDY      38  33  82  CALM    30.27F
#BOARDMAN SCHOOLN/A         38  34  85  CALM    30.30F
#BOARDMAN 8SW   N/A         37  35  92  N2      30.29S
#ECHO 8SW       N/A         37  37  100 CALM    30.25R
#IONE SCHOOL    N/A         35  24  64  CALM    30.23F
#IRRIGON 4NW    N/A         38  38  100 NE2     N/A
#UMATILLA SCHOOLN/A         35  35  100 CALM    30.32F
#UMATILLA       N/A         38  33  82  CALM    30.27S
$$

ORZ507-311210-
NORTHERN FOOTHILLS OF THE BLUES

CITY            SKY/WX      TMP DP  RH  WIND    PRES   REMARKS
PENDLETON AIRPT CLOUDY      35  32  89  N3      30.25R
#ADAMS 3WNW     N/A         33  31  92  CALM    30.32S
#ATHENA         N/A         32  31  96  CALM    30.34S
#CAYUSE         N/A         33  31  92  CALM    30.31S
#HELIX SCHOOL   N/A         33  32  96  CALM    30.32S
#HELIX 3N       N/A         32  31  96  SW2     30.20R
#HOLDMAN 5SE    N/A         35  33  92  CALM    30.25R
#HOLDMAN 6E     N/A         32  31  96  E1      30.12R
#M-F FERNDALE   N/A         36  32  85  CALM    30.28R
#M-F GROVE ELEM N/A         36  30  79  CALM    30.26S
#M-FREEWATER 5SEN/A         34  31  89  CALM    30.26S
#PENDLETON DNTN N/A         37  30  75  CALM    29.05S
#PDT AQUATIC CTRN/A         37  33  85  N3      30.25S
#PENDLETON 5NE  N/A         34  32  92  CALM    30.21S
#PDT SUNRIDGE   N/A         35  32  89  CALM    30.28S
#PENDLETON 7NW  N/A         36  32  85  CALM    28.15R
#TUTUILLA       N/A         35  32  89  CALM    30.31R
#UMAPINE 2E     N/A         37  35  92  CALM    30.27S
#WESTON SCHOOL  N/A         31  28  88  CALM    30.22S

$$

ORZ508-311210-
SOUTHERN FOOTHILLS OF THE BLUES

CITY            SKY/WX      TMP DP  RH  WIND    PRES   REMARKS
LEXINGTON       MOCLDY      32  32  100 E7      30.24F
#AJAX           N/A         34  29  82  S8      30.10F
#CONDON SCHOOL  N/A         30  29  96  CALM    30.13F
#CONDON 5W      N/A         30  29  96  CALM    30.12F
#FOSSIL SCHOOL  N/A         31  28  88  CALM    30.17S
#HEPPNER EOC    N/A         30  29  96  SE5     30.24F
#HEPPNER 4NE    N/A         29  28  96  CALM    30.29F
#LEXINGTON 2SE  N/A         32  29  89  SE3     30.19F
#MIKKALO        N/A         31  30  96  CALM    30.20F
#OLEX 4N        N/A         33  32  96  CALM    30.22F
#RUGGS 5NE      N/A         29  23  78  CALM    30.33S
#RUGGS 2SW      N/A         28  27  96  CALM    30.33R

$$

ORZ502-503-311210-
BLUE MOUNTAINS

CITY            SKY/WX      TMP DP  RH  WIND    PRES   REMARKS
MEACHAM         CLEAR       20  17  88  CALM    30.16F
#BATTLE MTN DOT N/A         26  25  96  S3      N/A
#HARDMAN 10S    N/A         26  25  96  S2      30.43R
#HEPPNER 15SE   N/A         29  25  85  CALM    30.07S
#LADD CYN SMT   N/A         23  19  84  CALM    N/A
#LADD CREEK ODOTN/A         25  24  96  S1      N/A
#LONG CREEK HS  N/A         26  26  100 CALM    30.17F
#N POWDER DOT   N/A         20  18  92  CALM    N/A
#PIKES PEAK     N/A         25  23  92  CALM    27.99S
#TOLLGATE       N/A         30  25  81  CALM    30.04F
#TROY SCHOOL    N/A         36  32  85  CALM    30.16R
#UKIAH          N/A         27  25  92  CALM    30.40S
#WESTON 4E      N/A         26  25  96  CALM    30.27S
$$

ORZ505-311210-
JOHN DAY BASIN

CITY            SKY/WX      TMP DP  RH  WIND    PRES   REMARKS
JOHN DAY        CLOUDY      31  29  92  E3      30.21F
#JOHN DAY KJDY  N/A         36  25  64  NE1     30.25F
#DAYVILLE SCHOOLN/A         36  29  75  SE2     30.21F
#MITCHELL       N/A         26  26  100 CALM    30.35S
#MONUMENT HS    N/A         36  29  75  E1      30.26S
#MT. VERNON 5SE N/A         28  26  92  CALM    30.15F
#WINLOCK        N/A         32  29  89  CALM    30.29S
$$

ORZ506-311210-
OCHOCO AND JOHN DAY HIGHLANDS

CITY            SKY/WX      TMP DP  RH  WIND    PRES   REMARKS
#BUCK CREEK DOT N/A         29  29  100 CALM    N/A
#HORSE RIDGE DO N/A         14  11  88  CALM    N/A
#KEYES SMT DOT  N/A         21  19  92  E3      N/A
#PAULINA SCHOOL N/A         50  35  56  NE1     30.16S
#PINE MTN OBS   N/A         35  20  54  NW7     N/A
#PRAIRIE CITY   N/A         26  23  88  SE3     30.44S
#SENECA         N/A         23  N/A N/A CALM    N/A
#SENECA 9NW     N/A         17  16  96  CALM    30.31F
$$

ORZ049-311210-
GRANDE RONDE VALLEY

CITY            SKY/WX      TMP DP  RH  WIND    PRES   REMARKS
LA GRANDE       CLEAR       25  18  74  CALM    30.18S
#COVE           N/A         24  19  81  CALM    30.03S
#COVE SCHOOL    N/A         26  24  92  CALM    30.15R
#COVE 6NW       N/A         21  18  88  CALM    30.36R
#ELGIN 3N       N/A         25  19  78  CALM    29.99S
#ELGIN 1E       N/A         25  21  84  CALM    N/A
#IMBLER SCHOOL  N/A         25  22  88  CALM    30.14S
#ISLAND CITY 4N N/A         35  34  96  CALM    30.22S
#LADD CYN DOT   N/A         27  24  88  SE7     N/A
#UNION 1S       N/A         25  24  96  CALM    30.23S
$$

ORZ050-311210-
WALLOWA COUNTY

CITY            SKY/WX      TMP DP  RH  WIND    PRES   REMARKS
#ENTERPRISE AP  N/A         26  22  85  CALM    30.09R
#ENTERPRISE HS  N/A         23  20  88  CALM    30.17R
#IMNAHA SCHOOL  N/A         36  32  85  S2      30.22R
#IMNAHA 10S     N/A         22  20  92  CALM    30.18R
#JOSEPH 3N      N/A         22  16  77  CALM    30.17R
#JOSEPH 3W      N/A         28  11  48  CALM    29.96R
#LOSTINE        N/A         22  20  92  CALM    30.11R
#MT HOWARD 8000 N/A         29   4  34  NW7     30.08F
#PROMISE 1S     N/A         25  24  96  CALM    30.40R
#SHEEP RDG 7000 N/A         33   3  27  CALM    30.18S
#WALLOWA SCHOOL N/A         22  21  96  CALM    31.31R



$$



USA.gov is the U.S. government's official web portal to all federal, state and local government web resources and services.